Indianapolis, IN

1:13 AM EST on November 12, 2019 (GMT -0500)
Indianapolis Terry

Weather History for KTYQ - September, 2019

Change the Weather History Date:

Friday, September 20, 2019

  Actual Average (WUND) Record (WUND)
Temperature  
Mean Temperature 71 °F -  
Max Temperature 84 °F - - (-1)
Min Temperature 58 °F - - (-1)
Cooling Degree Days 6    
Growing Degree Days 21 (Base 50)    
Moisture  
Dew Point 65 °F    
Average Humidity 84    
Maximum Humidity 100    
Minimum Humidity 48    
Precipitation  
Precipitation 0.00 in - - ()
Sea Level Pressure  
Sea Level Pressure 30.15 in    
Wind  
Wind Speed 1 mph ()    
Max Wind Speed 7 mph    
Max Gust Speed -    
Visibility 8.8 miles    
Events      
Averages and records for this station are not official NWS values.
T = Trace of Precipitation, MM = Missing Value Source: Averaged Metar Reports

Daily Weather History Graph

Daily Weather History Graph

Search for Another Location

Airport or City:

Astronomy

Sep. 20, 2019 Rise Set
Actual Time 7:30 AM EDT 7:45 PM EDT
Civil Twilight 7:03 AM EDT 8:12 PM EDT
Nautical Twilight 6:31 AM EDT 8:44 PM EDT
Astronomical Twilight 5:59 AM EDT 9:16 PM EDT
Moon 11:35 PM EDT (9/20) 1:34 PM EDT (9/20)
Length of Visible Light 13h 09m
Length of Day
12h 15m
Waning Gibbous, 65% of the Moon is Illuminated
Sep 20
Waning Gibbous
Sep 21
Last Quarter
Sep 28
New
Oct 5
First Quarter
Oct 13
Full

Hourly Weather History & Observations

Time (EDT) Temp. Heat Index Dew Point Humidity Pressure Visibility Wind Dir Wind Speed Gust Speed Precip Events Conditions
12:15 AM 60.6 °F - 60.6 °F 100% 30.10 in 10.0 mi Calm Calm - N/A   Clear
12:35 AM 60.4 °F - 60.4 °F 100% 30.10 in 10.0 mi Calm Calm - N/A   Clear
12:55 AM 60.3 °F - 60.3 °F 100% 30.10 in 10.0 mi Calm Calm - N/A   Clear
1:35 AM 59.7 °F - 59.7 °F 100% 30.11 in 7.0 mi Calm Calm - N/A   Clear
1:55 AM 59.9 °F - 59.9 °F 100% 30.10 in 10.0 mi Calm Calm - N/A   Clear
2:15 AM 59.9 °F - 59.9 °F 100% 30.11 in 7.0 mi Calm Calm - N/A   Clear
2:35 AM 59.5 °F - 59.5 °F 100% 30.11 in 10.0 mi Calm Calm - N/A   Clear
2:55 AM 59.4 °F - 59.4 °F 100% 30.11 in 10.0 mi Calm Calm - N/A   Clear
3:15 AM 59.5 °F - 59.5 °F 100% 30.12 in 7.0 mi Calm Calm - N/A   Clear
3:35 AM 58.6 °F - 58.6 °F 100% 30.12 in 5.0 mi Calm Calm - N/A   Clear
3:55 AM 58.3 °F - 58.3 °F 100% 30.12 in 4.0 mi Calm Calm - N/A   Clear
4:15 AM 58.5 °F - 58.5 °F 100% 30.12 in 7.0 mi Calm Calm - N/A   Clear
4:35 AM 59.5 °F - 59.5 °F 100% 30.12 in 10.0 mi Calm Calm - N/A   Clear
4:55 AM 58.1 °F - 58.1 °F 100% 30.12 in 7.0 mi Calm Calm - N/A   Clear
5:15 AM 59.0 °F - 59.0 °F 100% 30.13 in 7.0 mi Calm Calm - N/A   Clear
5:35 AM 59.5 °F - 59.5 °F 100% 30.13 in 7.0 mi Calm Calm - N/A   Clear
5:55 AM 59.9 °F - 59.9 °F 100% 30.13 in 7.0 mi Calm Calm - N/A   Clear
6:15 AM 60.4 °F - 60.4 °F 100% 30.13 in 7.0 mi Calm Calm - N/A   Clear
6:35 AM 60.8 °F - 60.8 °F 100% 30.14 in 7.0 mi Calm Calm - N/A   Clear
6:55 AM 59.5 °F - 59.5 °F 100% 30.14 in 7.0 mi Calm Calm - N/A   Clear
7:15 AM 58.6 °F - 58.6 °F 100% 30.15 in 5.0 mi Calm Calm - N/A   Clear
7:35 AM 58.5 °F - 58.5 °F 100% 30.15 in 5.0 mi Calm Calm - N/A   Clear
7:55 AM 58.6 °F - 58.6 °F 100% 30.15 in 4.0 mi Calm Calm - N/A   Clear
8:15 AM 59.5 °F - 59.5 °F 100% 30.16 in 4.0 mi Calm Calm - N/A   Clear
8:35 AM 61.9 °F - 61.9 °F 100% 30.16 in 4.0 mi Calm Calm - N/A   Clear
8:55 AM 64.4 °F - 64.4 °F 100% 30.17 in 5.0 mi Calm Calm - N/A   Clear
9:15 AM 66.9 °F - 66.9 °F 100% 30.17 in 7.0 mi Calm Calm - N/A   Clear
9:35 AM 69.3 °F - 69.3 °F 100% 30.17 in 7.0 mi Calm Calm - N/A   Clear
9:55 AM 71.8 °F - 70.0 °F 94% 30.17 in 10.0 mi SW 3.5 mph - N/A   Clear
10:15 AM 73.6 °F - 70.2 °F 89% 30.17 in 10.0 mi Calm Calm - N/A   Clear
10:35 AM 75.7 °F - 70.0 °F 82% 30.17 in 10.0 mi Calm Calm - N/A   Clear
10:55 AM 77.0 °F - 69.3 °F 77% 30.17 in 10.0 mi Calm Calm - N/A   Clear
11:10 AM 78.3 °F - 70.7 °F 77% 30.17 in 10.0 mi SSW 3.5 mph - N/A   Clear
11:35 AM 80.4 °F 83.1 °F 68.2 °F 66% 30.18 in 10.0 mi Calm Calm - N/A   Clear
11:55 AM 81.1 °F 84.0 °F 68.2 °F 65% 30.18 in 10.0 mi West 3.5 mph - N/A   Clear
12:15 PM 82.2 °F 85.1 °F 67.8 °F 62% 30.18 in 10.0 mi Calm Calm - N/A   Clear
12:35 PM 80.8 °F 82.9 °F 66.4 °F 61% 30.17 in 10.0 mi Calm Calm - N/A   Clear
12:55 PM 82.0 °F 84.3 °F 66.6 °F 59% 30.17 in 10.0 mi Calm Calm - N/A   Clear
1:15 PM 82.6 °F 85.1 °F 67.1 °F 59% 30.16 in 10.0 mi SW 4.6 mph - N/A   Clear
1:35 PM 83.1 °F 84.8 °F 65.1 °F 54% 30.16 in 10.0 mi Calm Calm - N/A   Clear
2:15 PM 83.3 °F 84.8 °F 64.6 °F 53% 30.15 in 10.0 mi WSW 3.5 mph - N/A   Clear
2:35 PM 84.0 °F 84.7 °F 62.4 °F 48% 30.15 in 10.0 mi Calm Calm - N/A   Scattered Clouds
2:55 PM 84.2 °F 85.0 °F 62.8 °F 48% 30.15 in 10.0 mi Calm Calm - N/A   Mostly Cloudy
3:15 PM 83.8 °F 85.6 °F 65.1 °F 53% 30.14 in 10.0 mi SW 4.6 mph - N/A   Scattered Clouds
3:35 PM 83.3 °F 85.3 °F 65.8 °F 55% 30.14 in 10.0 mi WSW 4.6 mph - N/A   Mostly Cloudy
3:55 PM 84.2 °F 86.6 °F 66.4 °F 55% 30.14 in 10.0 mi SSW 3.5 mph - N/A   Scattered Clouds
4:15 PM 84.9 °F 86.8 °F 65.7 °F 52% 30.14 in 10.0 mi WSW 5.8 mph - N/A   Scattered Clouds
4:35 PM 84.0 °F 86.0 °F 65.7 °F 54% 30.13 in 10.0 mi SW 5.8 mph - N/A   Clear
4:55 PM 83.5 °F 85.7 °F 66.2 °F 56% 30.13 in 10.0 mi WSW 4.6 mph - N/A   Clear
5:15 PM 84.2 °F 85.6 °F 64.0 °F 51% 30.13 in 10.0 mi WSW 3.5 mph - N/A   Clear
5:35 PM 82.9 °F 85.6 °F 67.3 °F 59% 30.13 in 10.0 mi WSW 5.8 mph - N/A   Clear
5:55 PM 82.4 °F 84.6 °F 66.4 °F 58% 30.13 in 10.0 mi WSW 6.9 mph - N/A   Scattered Clouds
6:15 PM 80.8 °F 83.2 °F 67.3 °F 63% 30.13 in 10.0 mi WSW 5.8 mph - N/A   Scattered Clouds
6:35 PM 81.5 °F 84.4 °F 68.2 °F 64% 30.13 in 10.0 mi WSW 6.9 mph - N/A   Scattered Clouds
6:55 PM 80.4 °F 83.2 °F 68.4 °F 67% 30.14 in 10.0 mi WSW 5.8 mph - N/A   Clear
7:15 PM 78.1 °F - 69.1 °F 74% 30.14 in 10.0 mi WSW 4.6 mph - N/A   Clear
7:35 PM 76.3 °F - 69.8 °F 80% 30.14 in 10.0 mi SW 3.5 mph - N/A   Clear
7:55 PM 74.3 °F - 70.0 °F 86% 30.14 in 10.0 mi SW 3.5 mph - N/A   Clear
8:15 PM 72.3 °F - 69.8 °F 92% 30.15 in 10.0 mi SW 3.5 mph - N/A   Clear
8:35 PM 71.6 °F - 70.0 °F 95% 30.15 in 10.0 mi SSW 4.6 mph - N/A   Clear
8:55 PM 70.9 °F - 70.0 °F 97% 30.16 in 10.0 mi SSW 4.6 mph - N/A   Clear
9:15 PM 69.1 °F - 69.1 °F 100% 30.16 in 10.0 mi SW 4.6 mph - N/A   Clear
9:35 PM 71.1 °F - 70.0 °F 96% 30.17 in 10.0 mi SW 6.9 mph - N/A   Clear
9:55 PM 71.1 °F - 70.0 °F 96% 30.17 in 10.0 mi SW 3.5 mph - N/A   Clear
10:15 PM 69.1 °F - 69.1 °F 100% 30.18 in 10.0 mi WSW 3.5 mph - N/A   Scattered Clouds
10:35 PM 68.5 °F - 68.5 °F 100% 30.18 in 10.0 mi SW 4.6 mph - N/A   Clear
10:55 PM 67.1 °F - 67.1 °F 100% 30.18 in 10.0 mi Calm Calm - N/A   Clear
11:15 PM 66.6 °F - 66.6 °F 100% 30.18 in 10.0 mi SSW 3.5 mph - N/A   Clear
11:35 PM 66.7 °F - 66.7 °F 100% 30.18 in 10.0 mi SW 4.6 mph - N/A   Clear
11:55 PM 67.3 °F - 67.3 °F 100% 30.18 in 10.0 mi SSW 3.5 mph - N/A   Clear